User: anonymous   Login
Location: Deep South Regional Star Gaze
(30.9929°N, 90.9586°W)
Time: 15:33:17
(UTC-05:00)
Language:

H-2A R/B - Orbit

View from above orbital plane
View from above orbital plane
View from above satellite
View from above satellite

Ground track
Ground track

The orbit data is extracted from the following two-line orbital elements,

1 26899U 01038B   15149.68924297  .00004682  00000-0  15175-2 0  9994
2 26899 028.4090 008.7608 7141656 053.3712 359.8585 02.45481196118002
Epoch (UTC): 29 May 2015 16:32:30
Eccentricity: 0.7141656
inclination: 28.4090°
perigee height: 257 km
apogee height: 33412 km
right ascension of ascending node: 8.7608°
argument of perigee: 53.3712°
revolutions per day: 2.45481196
mean anomaly at epoch: 359.8585°
orbit number at epoch: 11800

The dashed part of the orbit path shows where the satellite is in the earth's shadow,  

DLR